Reflectivity
-20 -20 -20 -20 -20 -20 -6 -5 -20 -20 -20 -20 -20 -20 -20 -15 2 5 12 8 4 -20 -20 -19 -20 -3 -20 7 19 -7 8 0 15 -16 -20 -20 -19 -20 -20 -20 -20 -20 -20
-20 -20 -20 -20 -19 -20 -20 -20 -20 -20 -20 -20 -20 -20 -20 -20 -20 -20 -18 11 -0 -20 -20 2 -20 -18 -17 -20 3 -18 -20 -15 3 -20 -20 -20 -20 -20 -20 -20 -20 -20 -20
-20 -20 -20 -20 -20 -20 -20 -20 -20 -20 -20 -20 -20 -20 -20 -20 20 -20 4 -17 -1 21 3 -20 -20 1 -20 -10 -20 -20 -20 -20 -15 8 -20 -20 -20 -20 -20 -16 -19 -20 -20
-20 -20 -20 -20 -20 -20 -20 -20 -20 -20 -20 -20 -20 -20 -20 12 6 24 5 -20 -20 -20 -20 -20 3 -20 -20 -20 -7 6 3 8 -4 1 7 -3 0 -6 -9 -17 -14 -9 -16
-20 -20 -20 -20 -20 -2 -15 -13 -19 -20 -20 -20 -20 -20 -20 -8 -15 -11 -11 -6 -16 -20 -20 -20 -20 -20 20 13 10 5 -20 -0 11 16 12 11 11 11 -14 -18 -19 -8 -16
-20 -20 -20 -20 -20 -20 -20 10 -19 -20 -20 -20 -20 -20 -19 -20 -7 -5 8 -19 -20 -20 -20 -12 -2 19 15 14 7 -20 -18 12 -17 4 -20 3 -11 -6 -20 -20 2 12 -5
-20 -20 -20 -20 -20 -20 -15 -20 -20 7 12 -2 -20 -20 -20 -20 -20 -20 5 -15 -3 1 17 21 -13 -20 -6 16 -9 15 19 8 5 16 15 -0 -5 -20 -20 7 -13 -20 -20
-20 -20 -20 -20 -20 -20 -20 -11 -7 -13 15 19 -3 -16 1 -15 -5 -20 -20 -20 -20 -20 3 21 8 13 -20 -20 -20 0 15 7 22 21 21 16 17 3 -5 2 -2 8 4
-20 -20 -20 -20 -20 -20 -20 -20 -20 -20 8 29 29 12 0 -16 2 -20 -20 -20 -20 -20 -20 -20 -20 -20 -20 -20 -20 -18 19 5 8 2 17 23 22 22 13 1 4 2 -9
-20 -20 -20 -20 -20 -20 -20 -20 -20 -20 -20 -7 11 33 35 26 12 -2 1 -20 -18 -19 -20 -20 -7 5 13 11 -2 27 -18 -14 -13 -5 21 30 27 15 22 21 24 17 28
-20 -20 -20 -20 -20 -20 -20 -20 -20 -20 -20 -20 -20 -20 3 24 27 34 31 18 -3 0 25 6 17 15 16 20 13 -10 13 22 15 16 23 29 33 30 28 17 21 25 18
-20 -20 -20 -20 -20 -20 -20 -20 -20 -20 -20 -20 -20 -20 -20 -20 8 16 17 22 31 35 32 37 38 36 34 32 37 37 38 39 34 33 25 25 28 25 16 -1 -14 -20 -20
-20 -20 -20 -20 -20 -20 -20 -20 -20 -20 -20 -20 -20 -20 -20 -20 -20 -19 11 15 14 15 25 29 27 25 23 28 30 30 31 28 27 23 -14 -18 -19 -20 -20 -20 -20 -20 -20
-20 -20 -20 -20 -20 -20 -20 -20 -20 -20 -20 -20 -20 -20 -20 -20 -20 -20 -20 -20 -20 -4 7 3 7 5 11 11 2 -18 -20 -20 -20 -20 -20 -20 -20 -20 -20 -20 -20 -20 -20
-20 -20 -20 -20 -20 -20 -20 -20 -20 -20 -20 -20 -20 -20 -20 -20 -18 -18 -20 -20 -20 -20 -20 -20 -20 -20 -20 -20 -20 -20 -20 -20 -20 -20 -20 -20 -20 -20 -20 -20 -20 -20 -20
-20 -20 -20 -20 -20 -20 -20 -20 -20 -20 -20 -20 -20 -20 -20 -20 7 5 -11 -20 -20 -20 -20 -20 -20 -20 -20 -20 -20 -20 -20 -4 -20 -20 -20 -20 -20 -20 -20 -20 -20 -20 -20
-20 -20 -20 -20 -20 -20 -20 -20 -20 -20 -20 -20 -20 -20 -20 -20 -20 -2 -20 -20 -20 -20 -20 -20 -20 -20 -20 -20 -6 -20 -20 -20 -20 -20 -20 -20 -20 -20 -12 -20 -20 -20 -20
-20 -20 -20 -20 -20 -20 -20 -20 -20 -20 -20 -20 -20 -20 -20 -20 -20 -20 -20 -20 -20 -20 -20 -20 -20 -20 -20 -20 -20 -20 -20 -20 -20 -20 -20 -20 -20 -20 -20 -20 -20 -20 -20
-20 -20 -20 -20 -20 -20 -20 -20 -20 -20 -20 -20 -20 -20 -20 -20 -20 -20 -20 -20 -20 -20 -20 -20 -20 -20 -20 -20 -20 -20 -20 -20 -20 -20 -20 -20 -20 -20 -20 -20 -20 -11 -1
-20 -20 -20 -20 -20 -20 -20 -20 -20 -20 -20 -20 -20 -20 -20 -20 -20 -20 -20 -20 -20 -20 -20 -20 -20 -19 -5 -20 -20 -20 -20 -20 -20 -20 -20 -20 -20 -20 -20 -20 -20 -20 -20
-20 -20 10 -20 -20 -20 -20 -20 -20 -20 -20 -20 -20 -20 -20 -20 -20 -20 -20 -20 -20 -6 -20 -20 -12 -20 -20 -20 -20 -20 -20 -20 -20 -20 -20 -20 -20 -20 -20 -20 -20 -20 -20
-20 -20 -20 -13 -20 -20 -20 -20 -20 -20 -20 -20 -20 -20 -20 -20 -20 -20 -20 -20 -20 -20 -20 -20 -20 -20 -20 -20 -20 -20 -20 -20 -20 -20 -20 -20 -20 -20 -20 -20 -20 -20 -20
1 -13 -20 -13 -13 11 -7 -20 -20 -20 -20 -20 -20 -20 -20 -20 -20 -20 -20 -20 -20 -20 -20 -20 -20 -20 -20 -20 -20 -20 -20 -20 -19 -20 -20 -20 -20 -20 -20 -20 -20 -20 -18
3 1 -7 -20 -20 -10 -20 -19 -20 -20 -20 -20 -20 -20 -20 -20 -20 -20 -20 -20 -20 -20 -20 -20 -20 -20 -20 -20 -20 -20 -20 -19 -18 -20 -20 -20 -20 -20 -20 -20 -20 -20 -20
2 -20 -20 -20 -20 -19 -19 -11 -12 -5 -18 -19 -20 -20 -20 -20 -20 -20 -20 -20 -20 -20 -20 -20 -20 -20 -20 -20 -20 -20 -20 12 -18 -20 -20 -20 -20 -20 -20 -20 -20 -20 -20
1 -8 -11 -16 -20 -15 -9 -0 -4 -8 -19 -20 -20 -20 -20 -20 -20 -20 -20 -20 -20 -20 -20 -20 -20 -20 -20 -20 -20 -20 -18 11 -18 -20 -20 -20 -20 -20 -20 -20 -20 -20 -20
Wind_Speed
13 13 15 14 15 13 12 13 9 7 7 8 10 10 11 12 13 11 12 10 11 10 7 10 12 8 8 7 7 7 8 8 10 5 5 5 5 7 6 6 7 8 9
12 14 15 14 14 13 11 11 9 9 9 9 8 9 9 5 9 12 12 11 11 10 8 7 10 7 8 7 7 10 9 9 9 14 6 5 7 7 5 5 7 6 8
11 13 14 13 13 12 11 11 9 9 10 9 8 6 5 5 7 11 10 10 9 9 9 10 11 9 10 9 9 8 8 7 8 8 8 4 6 3 6 4 6 8 7
11 12 14 14 13 12 12 10 8 8 9 7 6 6 6 4 11 12 9 9 10 9 9 10 9 10 12 11 10 10 9 9 8 9 8 8 7 4 7 7 7 6 9
10 11 12 14 13 12 13 8 6 7 7 5 5 5 5 1 3 7 6 6 6 7 7 9 9 10 13 11 8 9 10 8 7 8 8 7 7 3 8 6 9 7 7
8 10 11 12 13 12 11 11 10 9 8 8 8 7 7 5 15 13 9 6 6 6 6 6 6 11 13 16 18 16 13 12 11 9 8 9 11 9 5 7 7 7 11
7 8 9 10 11 11 10 10 10 10 9 10 10 9 8 8 19 16 12 6 5 4 5 6 4 3 6 6 10 14 15 15 17 13 12 11 11 11 9 10 10 10 11
6 7 7 8 9 10 10 9 9 8 9 9 9 10 8 7 18 15 12 5 5 2 2 3 3 3 1 3 4 5 7 1 7 6 7 4 6 6 2 3 1 5 8
6 6 6 5 6 7 8 8 7 7 7 8 7 9 10 10 22 19 12 4 5 6 7 8 7 6 7 5 5 5 7 7 10 17 16 16 18 18 14 2 4 3 1
5 6 6 5 5 5 5 6 4 4 5 5 6 8 13 11 21 18 13 5 8 7 9 11 18 12 15 14 9 7 10 7 6 5 6 10 12 13 16 9 4 3 1
5 5 5 5 5 5 4 4 5 5 5 5 6 7 8 10 10 19 18 9 6 7 8 8 8 19 19 19 18 11 9 5 8 6 6 5 6 7 6 6 5 4 2
3 3 4 5 5 5 5 5 5 5 5 5 5 5 6 8 15 17 19 18 14 9 8 6 9 20 21 18 13 18 15 9 5 4 4 5 4 4 4 4 5 4 2
3 2 1 3 4 4 4 5 4 5 4 4 4 4 5 5 5 15 16 17 17 10 7 12 17 17 17 14 18 17 13 6 5 5 4 3 2 3 4 3 3 3 4
4 4 3 3 1 2 3 3 3 3 3 4 4 4 4 4 4 4 5 5 11 8 10 10 13 14 15 12 9 9 6 5 4 2 2 1 1 3 1 1 1 2 2
5 4 4 3 2 0 0 1 2 1 3 2 2 2 4 5 5 8 6 4 4 7 7 5 6 6 6 6 6 6 5 5 5 3 3 4 4 4 2 2 2 2 1
5 5 4 4 4 3 3 1 2 4 6 6 5 4 3 6 6 8 8 9 10 8 6 6 6 5 5 5 5 5 4 6 4 5 4 3 3 3 4 3 2 2 3
6 5 4 5 4 4 4 3 3 2 3 4 4 4 5 6 5 4 7 9 9 7 5 5 5 5 5 5 5 4 5 4 3 4 4 4 4 4 7 5 2 3 3
6 12 5 5 4 4 4 3 3 3 3 1 3 2 3 5 5 4 5 5 4 6 5 4 4 4 4 4 4 4 4 4 3 3 4 4 4 5 6 6 5 5 6
7 5 5 4 4 5 4 3 3 3 3 2 1 1 2 5 6 7 8 3 3 4 3 4 3 3 4 3 2 2 3 4 3 3 3 4 4 4 5 5 6 12 13
6 12 9 5 4 4 4 4 4 3 3 3 2 2 1 1 1 1 2 2 3 3 2 3 3 2 3 2 4 3 3 4 4 4 4 4 5 5 5 6 6 8 8
6 6 12 6 6 6 5 5 4 3 3 3 3 3 6 2 1 1 1 2 2 2 2 1 1 1 2 2 3 3 3 4 4 4 4 5 6 6 6 6 7 7 8
7 7 7 8 6 5 5 4 4 4 4 4 3 3 7 2 2 2 2 2 2 1 1 0 1 1 1 2 3 4 4 5 5 4 6 5 7 6 6 6 7 7 7
7 7 7 6 6 8 6 5 5 5 4 4 4 2 1 2 2 2 2 3 3 2 1 1 1 1 2 3 2 4 4 5 5 6 6 7 7 6 6 7 7 7 7
7 8 8 7 6 7 6 6 5 8 5 4 4 4 4 3 2 3 2 2 3 2 1 2 1 2 3 5 4 3 5 6 5 4 4 6 6 8 7 6 6 8 7
6 7 7 7 7 8 7 6 6 6 6 6 6 4 3 4 3 3 3 3 3 1 3 2 3 4 5 7 7 7 9 14 7 6 3 4 6 9 7 6 7 7 7
7 7 7 6 7 7 7 7 7 6 6 6 5 5 5 5 4 4 3 3 3 3 2 2 3 5 6 5 6 10 14 13 8 14 6 4 4 5 5 6 7 4 5
Wind_Direction
319 315 317 311 310 306 302 307 268 252 240 235 240 248 257 262 263 242 234 226 213 222 212 225 234 221 229 211 205 207 215 216 241 242 217 229 234 224 230 218 225 221 227
320 319 314 310 311 306 308 300 309 271 265 249 238 241 255 281 281 248 235 230 216 217 210 210 223 217 221 210 206 211 214 212 224 246 237 223 228 234 231 208 222 227 232
315 324 319 317 314 311 306 299 298 296 268 255 239 227 229 270 278 266 228 222 212 215 208 212 219 204 219 223 218 219 222 226 227 232 246 230 231 198 243 239 228 232 228
325 324 325 323 323 319 307 289 282 279 273 256 245 221 219 326 279 280 222 213 219 214 211 211 207 203 211 210 219 220 225 226 229 235 236 247 233 217 223 240 240 230 242
323 330 333 331 333 334 341 327 335 12 5 9 41 43 14 152 11 331 326 252 224 221 211 211 208 205 200 199 203 217 239 238 236 241 240 237 235 206 231 220 238 242 233
318 325 338 344 347 347 356 1 2 14 27 20 31 29 30 29 354 348 326 298 253 224 223 220 215 211 214 209 209 209 211 224 232 228 234 238 243 234 211 224 240 246 262
311 321 340 343 354 352 0 10 11 18 19 28 26 21 21 13 355 341 325 285 281 267 249 234 207 181 221 218 224 232 234 231 228 234 235 234 239 235 228 226 235 240 251
313 315 330 347 351 355 4 7 14 22 31 27 20 16 12 357 355 343 321 244 234 209 218 230 184 154 353 242 239 234 231 244 15 266 250 66 46 11 287 182 217 278 256
319 320 327 341 350 349 357 3 12 22 26 26 25 17 7 350 357 354 334 231 118 82 73 59 62 60 38 251 186 127 93 78 54 56 67 67 63 44 27 21 33 85 312
312 315 324 336 357 350 350 336 350 19 30 25 13 8 8 356 350 22 29 71 91 90 81 75 68 66 64 67 85 97 87 63 62 66 61 52 48 38 38 38 18 72 352
298 322 342 345 360 350 348 358 357 11 26 14 14 11 15 3 353 34 50 55 71 82 74 67 61 63 59 64 73 68 75 72 68 58 57 47 44 32 23 28 30 43 15
291 331 342 354 0 6 11 6 10 14 18 8 17 14 3 2 18 36 55 63 60 63 66 63 69 69 66 60 65 74 74 65 65 64 60 41 33 23 3 4 4 356 347
284 285 288 15 10 8 25 22 18 12 13 8 12 6 358 2 12 31 55 70 73 74 72 82 78 72 68 61 66 67 62 55 62 64 53 27 341 313 326 317 308 282 263
228 243 220 182 97 25 28 36 45 39 27 14 12 6 347 353 5 22 35 39 68 73 81 81 79 74 72 70 60 55 47 53 58 58 42 320 306 5 331 272 318 304 313
214 222 224 199 173 219 333 129 58 291 112 91 34 352 15 15 16 33 46 72 78 92 77 70 69 67 67 58 55 45 40 39 29 10 16 13 9 4 333 338 268 300 332
215 206 204 197 200 199 193 268 58 77 63 60 90 92 352 36 32 40 48 63 82 92 81 82 77 69 67 60 49 44 33 25 1 2 8 346 333 335 334 335 302 241 273
213 206 214 199 202 194 200 208 209 239 45 74 53 45 57 55 49 69 62 65 65 67 80 82 81 73 66 58 47 31 23 5 343 347 339 340 332 311 329 333 286 236 254
203 215 191 198 205 212 213 212 204 211 214 243 357 23 82 70 59 59 102 86 68 66 67 68 72 73 64 46 35 16 353 327 317 293 283 283 318 329 335 332 330 326 331
196 206 193 198 190 208 215 213 214 212 220 218 269 323 3 101 86 81 78 74 86 88 81 78 65 49 44 36 347 309 307 292 301 293 279 282 289 305 319 327 323 335 329
203 210 199 193 201 197 193 208 211 210 213 207 220 235 274 82 80 61 74 98 98 90 81 76 57 32 48 358 327 319 311 298 284 273 275 277 299 315 322 328 324 321 314
194 207 211 200 202 201 196 202 202 186 195 205 216 223 200 152 155 103 119 110 115 111 100 57 53 20 7 308 292 302 293 290 282 277 284 307 319 321 321 316 311 312 304
195 196 206 205 198 203 205 190 186 192 197 193 218 246 189 171 171 174 148 141 148 119 79 21 52 336 324 292 295 297 290 295 294 310 326 314 322 315 316 315 316 313 313
193 196 202 210 198 206 213 193 192 199 196 198 187 202 126 182 198 198 189 176 161 171 174 209 232 279 301 284 242 250 270 297 302 304 311 328 323 319 322 320 316 319 320
199 198 202 199 188 195 195 197 196 207 203 194 187 191 182 179 195 215 206 201 184 183 217 263 303 302 290 291 289 267 279 287 288 279 299 316 317 323 318 316 323 323 314
196 202 204 202 195 200 190 191 189 192 200 194 197 189 184 175 189 200 207 204 207 222 270 262 253 263 277 288 293 302 301 338 5 5 348 334 323 322 319 325 328 325 315
197 206 210 203 202 199 184 182 192 194 203 204 197 195 179 179 192 195 204 192 194 221 256 260 275 273 293 287 295 316 333 347 17 7 3 344 337 328 322 335 329 328 315